Home > Time Zones > World Clock > Weather > Italy > Rome > Past weeks

Flag for Italy Weather past 2 weeks in Rome, Italy

Now
48 °F

Clear.


Feels Like: 48 °F
Forecast: 43 / 61 °F
Wind: No wind

Location: Rome / Ciampino

Current Time: Mar 4, 2015 at 12:18:01 AM

Latest Report: Mar 3, 2015 at 11:15 PM


Visibility: 10 mi

Pressure: 30.21 "Hg

Humidity: 94%

Dew point: 46 °F

Location of RomeLocation

Historic Weather in Rome — Graph

°F

Rome temperature yesterday

Maximum temperature yesterday: 66 °F (at 1:45 PM)
Minimum temperature yesterday: 45 °F (at 6:15 AM)
Average temperature yesterday: 55 °F

Past Weeks' High & Low Weather Summary

 TemperatureHumidityPressure
High66 °F (Mar 3, 1:45 PM)100% (Feb 20, 4:15 AM)30.48 "Hg (Feb 20, 4:15 AM)
Low34 °F (Feb 20, 5:45 AM)34% (Feb 17, 4:45 PM)29.33 "Hg (Feb 22, 1:45 PM)
Average50 °F75%29.92 "Hg
* Reported Feb 16 10:15 PM — Mar 3 10:45 PM, Rome, Weather by CustomWeather, © 2015

Note: Actual official high and low records may vary slightly from our data, if they occured in-between our weather recording intervals... More about our weather records

Advertising

Rome weather history for previous 24 hours

 ConditionsComfort  
Time TempWeatherWind HumidityBarometerVisibility
10:45 PM
Tue, Mar 3
50 °FClear.1 mph94%30.21 "Hg10 mi
10:15 PM52 °FClear.No wind88%30.21 "Hg10 mi
9:45 PM52 °FClear.No wind88%30.18 "Hg10 mi
9:15 PM54 °FClear.No wind88%30.18 "Hg10 mi
8:15 PM55 °FClear.6 mph94%30.18 "Hg10 mi
7:45 PM55 °FClear.6 mph88%30.18 "Hg10 mi
7:15 PM55 °FClear.6 mph94%30.15 "Hg10 mi
6:45 PM57 °FPassing clouds.3 mph82%30.15 "HgN/A
6:15 PM59 °FPassing clouds.5 mph82%30.15 "HgN/A
5:45 PM59 °FPassing clouds.7 mph82%30.12 "HgN/A
5:15 PM59 °FPassing clouds.7 mph72%30.12 "HgN/A
4:45 PM61 °FPassing clouds.8 mph63%30.12 "HgN/A
4:15 PM63 °FPassing clouds.7 mph59%30.12 "HgN/A
3:45 PM63 °FPassing clouds.7 mph59%30.12 "HgN/A
3:15 PM64 °FPassing clouds.6 mph49%30.12 "HgN/A
2:45 PM64 °FPassing clouds.8 mph49%30.12 "HgN/A
2:15 PM66 °FPassing clouds.7 mph49%30.12 "HgN/A
1:45 PM66 °FPassing clouds.7 mph52%30.12 "HgN/A
1:15 PM64 °FScattered clouds.3 mph56%30.12 "HgN/A
12:45 PM64 °FScattered clouds.5 mph52%30.12 "HgN/A
12:15 PM64 °FScattered clouds.3 mph52%30.12 "HgN/A
11:45 AM63 °FScattered clouds.2 mph64%30.12 "HgN/A
11:15 AM61 °FScattered clouds.2 mph68%30.12 "HgN/A
10:45 AM59 °FPassing clouds.2 mph72%30.12 "HgN/A
10:15 AM59 °FPassing clouds.No wind77%30.12 "Hg5 mi
9:45 AM54 °FPassing clouds.No wind94%30.12 "Hg4 mi
9:15 AM52 °FFog.1 mph94%30.09 "Hg2 mi
8:45 AM48 °FFog.No wind100%30.09 "Hg2 mi
8:15 AM48 °FFog.1 mph94%30.09 "Hg1 mi
7:45 AM46 °FSunny.1 mph93%30.09 "Hg10 mi
7:15 AM45 °FSunny.No wind93%30.07 "Hg10 mi
6:45 AM45 °FSunny.No wind93%30.07 "Hg10 mi
6:15 AM45 °FClear.2 mph100%30.04 "Hg10 mi
5:45 AM46 °FClear.No wind93%30.04 "Hg10 mi
5:15 AM46 °FClear.No wind93%30.04 "Hg10 mi
4:45 AM46 °FClear.No wind93%30.04 "Hg10 mi
4:15 AM48 °FClear.No wind94%30.04 "Hg10 mi
3:45 AM48 °FClear.No wind94%30.04 "Hg10 mi
3:15 AM48 °FClear.No wind94%30.04 "Hg10 mi
2:45 AM48 °FPassing clouds.2 mph94%30.04 "HgN/A
2:15 AM48 °FPassing clouds.No wind94%30.04 "HgN/A
1:45 AM48 °FClear.No wind94%30.04 "Hg10 mi
1:15 AM48 °FClear.No wind94%30.04 "Hg10 mi
12:15 AM52 °FClear.No wind88%30.01 "Hg10 mi
Weather by CustomWeather, © 2015

See weather overviewHow to use our weather pages